Bingham Lake, MN

11:18 AM CST on February 20, 2017 (GMT -0600)
Windom Municipal

Weather History for KMWM - February, 2012

Change the Weather History Date:

Saturday, February 18, 2012

  Actual Average Record
Temperature  
Mean Temperature 22 °F -  
Max Temperature 37 °F 31 °F 62 °F (1981)
Min Temperature 8 °F 14 °F -18 °F (1993)
Degree Days  
Heating Degree Days 42    
Moisture  
Dew Point 16 °F    
Average Humidity 77    
Maximum Humidity 100    
Minimum Humidity 52    
Precipitation  
Precipitation 0.00 in - - ()
Sea Level Pressure  
Sea Level Pressure 30.17 in    
Wind  
Wind Speed 4 mph (SW)    
Max Wind Speed 9 mph    
Max Gust Speed -    
Visibility 10 miles    
Events      
Averages and records for this station are not official NWS values.
T = Trace of Precipitation, MM = Missing Value Source: NWS Daily Summary

Daily Weather History Graph

Daily Weather History Graph

Search for Another Location

Airport or City:

Trip Planner

Search our weather history database for the weather conditions in past years. The results will help you decide how hot, cold, wet, or windy it might be!

Date:

Astronomy

Feb. 18, 2012 Rise Set
Actual Time 7:15 AM CST 5:53 PM CST
Civil Twilight 6:46 AM CST 6:23 PM CST
Nautical Twilight 6:12 AM CST 6:56 PM CST
Astronomical Twilight 5:39 AM CST 7:30 PM CST
Moon 5:01 AM CST (2/18) 2:47 PM CST (2/18)
Length of Visible Light 11h 36m
Length of Day
10h 38m
Waning Crescent, 11% of the Moon is Illuminated
Feb 18
Waning Crescent
Feb 21
New
Feb 29
First Quarter
Mar 8
Full
Mar 14
Last Quarter

Hourly Weather History & Observations

Time (CST) Temp. Windchill Dew Point Humidity Pressure Visibility Wind Dir Wind Speed Gust Speed Precip Events Conditions
12:13 AM 15.8 °F 10.2 °F 12.2 °F 86% 30.18 in 10.0 mi West 3.5 mph - N/A   Clear
12:32 AM 15.8 °F 8.6 °F 12.2 °F 86% 30.18 in 10.0 mi West 4.6 mph - N/A   Clear
12:52 AM 15.8 °F 8.6 °F 12.2 °F 86% 30.18 in 10.0 mi West 4.6 mph - N/A   Clear
1:13 AM 14.0 °F 6.5 °F 10.4 °F 86% 30.18 in 10.0 mi West 4.6 mph - N/A   Clear
1:32 AM 14.0 °F 2.9 °F 10.4 °F 86% 30.18 in 10.0 mi West 8.1 mph - N/A   Clear
1:52 AM 14.0 °F 6.5 °F 10.4 °F 86% 30.19 in 10.0 mi West 4.6 mph - N/A   Clear
2:13 AM 12.2 °F 1.7 °F 10.4 °F 92% 30.19 in 10.0 mi West 6.9 mph - N/A   Clear
2:32 AM 12.2 °F 1.7 °F 10.4 °F 92% 30.19 in 10.0 mi West 6.9 mph - N/A   Clear
2:52 AM 14.0 °F 2.0 °F 10.4 °F 86% 30.19 in 10.0 mi WNW 9.2 mph - N/A   Clear
3:13 AM 12.2 °F 1.7 °F 10.4 °F 92% 30.19 in 10.0 mi WNW 6.9 mph - N/A   Clear
3:32 AM 15.8 °F 7.2 °F 12.2 °F 86% 30.18 in 10.0 mi WNW 5.8 mph - N/A   Clear
3:52 AM 14.0 °F 6.5 °F 10.4 °F 86% 30.18 in 10.0 mi WNW 4.6 mph - N/A   Clear
4:13 AM 14.0 °F 8.2 °F 12.2 °F 93% 30.18 in 10.0 mi West 3.5 mph - N/A   Clear
4:32 AM 12.2 °F 2.9 °F 10.4 °F 92% 30.18 in 10.0 mi WNW 5.8 mph - N/A   Clear
4:52 AM 10.4 °F 4.0 °F 8.6 °F 92% 30.18 in 10.0 mi WNW 3.5 mph - N/A   Clear
5:13 AM 10.4 °F - 8.6 °F 92% 30.18 in 10.0 mi Calm Calm - N/A   Clear
5:32 AM 12.2 °F 4.3 °F 10.4 °F 92% 30.18 in 10.0 mi NNW 4.6 mph - N/A   Clear
6:13 AM 12.2 °F - 10.4 °F 92% 30.18 in 10.0 mi Calm Calm - N/A   Clear
6:32 AM 12.2 °F 6.1 °F 10.4 °F 92% 30.19 in 10.0 mi West 3.5 mph - N/A   Clear
6:52 AM 10.4 °F 4.0 °F 8.6 °F 92% 30.19 in 10.0 mi NW 3.5 mph - N/A   Clear
7:13 AM 10.4 °F - 8.6 °F 92% 30.20 in 10.0 mi Calm Calm - N/A   Clear
7:32 AM 10.4 °F - 10.4 °F 100% 30.20 in 10.0 mi Calm Calm - N/A   Clear
7:52 AM 8.6 °F - 6.8 °F 92% 30.20 in 10.0 mi Calm Calm - N/A   Clear
8:13 AM 12.2 °F - 10.4 °F 92% 30.20 in 10.0 mi Calm Calm - N/A   Clear
8:32 AM 15.8 °F - 14.0 °F 93% 30.21 in 10.0 mi Calm Calm - N/A   Clear
8:52 AM 17.6 °F - 15.8 °F 93% 30.22 in 10.0 mi Calm Calm - N/A   Clear
9:12 AM 19.4 °F - 17.6 °F 93% 30.22 in 10.0 mi Calm Calm - N/A   Clear
9:32 AM 21.2 °F - 17.6 °F 86% 30.22 in 10.0 mi Calm Calm - N/A   Clear
9:52 AM 24.8 °F 20.5 °F 17.6 °F 74% 30.24 in 10.0 mi South 3.5 mph - N/A   Clear
10:13 AM 24.8 °F 20.5 °F 17.6 °F 74% 30.23 in 10.0 mi SSE 3.5 mph - N/A   Clear
11:13 AM 28.4 °F 22.2 °F 19.4 °F 69% 30.22 in 10.0 mi SSW 5.8 mph - N/A   Clear
11:32 AM 30.2 °F 24.3 °F 19.4 °F 64% 30.22 in 10.0 mi South 5.8 mph - N/A   Clear
11:52 AM 30.2 °F 26.7 °F 19.4 °F 64% 30.21 in 10.0 mi South 3.5 mph - N/A   Clear
12:12 PM 33.8 °F 30.8 °F 21.2 °F 60% 30.20 in 10.0 mi West 3.5 mph - N/A   Clear
12:32 PM 33.8 °F 30.8 °F 19.4 °F 56% 30.19 in 10.0 mi West 3.5 mph - N/A   Clear
12:52 PM 33.8 °F - 19.4 °F 56% 30.17 in 10.0 mi Calm Calm - N/A   Clear
1:13 PM 35.6 °F - 19.4 °F 52% 30.16 in 10.0 mi Calm Calm - N/A   Clear
1:32 PM 35.6 °F 31.7 °F 21.2 °F 56% 30.15 in 10.0 mi WSW 4.6 mph - N/A   Clear
1:52 PM 35.6 °F 32.8 °F 21.2 °F 56% 30.14 in 10.0 mi West 3.5 mph - N/A   Clear
2:12 PM 37.4 °F 34.9 °F 21.2 °F 52% 30.13 in 10.0 mi SSW 3.5 mph - N/A   Clear
2:32 PM 35.6 °F - 21.2 °F 56% 30.13 in 10.0 mi Calm Calm - N/A   Clear
2:52 PM 37.4 °F - 21.2 °F 52% 30.13 in 10.0 mi Calm Calm - N/A   Clear
3:12 PM 37.4 °F 32.8 °F 21.2 °F 52% 30.13 in 10.0 mi SSW 5.8 mph - N/A   Clear
3:32 PM 37.4 °F 32.1 °F 21.2 °F 52% 30.12 in 10.0 mi South 6.9 mph - N/A   Clear
3:53 PM 37.4 °F 32.1 °F 21.2 °F 52% 30.12 in 10.0 mi SSW 6.9 mph - N/A   Clear
4:13 PM 37.4 °F 32.8 °F 21.2 °F 52% 30.12 in 10.0 mi SSW 5.8 mph - N/A   Clear
4:32 PM 35.6 °F 29.9 °F 23.0 °F 60% 30.12 in 10.0 mi South 6.9 mph - N/A   Clear
4:53 PM 33.8 °F 27.7 °F 23.0 °F 65% 30.12 in 10.0 mi South 6.9 mph - N/A   Clear
5:12 PM 33.8 °F 27.0 °F 23.0 °F 65% 30.12 in 10.0 mi SSW 8.1 mph - N/A   Clear
5:32 PM 32.0 °F 26.4 °F 23.0 °F 69% 30.11 in 10.0 mi South 5.8 mph - N/A   Clear
5:53 PM 30.2 °F 24.3 °F 23.0 °F 75% 30.11 in 10.0 mi South 5.8 mph - N/A   Clear
6:12 PM 30.2 °F 24.3 °F 21.2 °F 69% 30.11 in 10.0 mi SSW 5.8 mph - N/A   Clear
6:53 PM 28.4 °F 20.4 °F 21.2 °F 74% 30.11 in 10.0 mi South 8.1 mph - N/A   Clear
7:12 PM 26.6 °F 20.0 °F 21.2 °F 80% 30.11 in 10.0 mi South 5.8 mph - N/A   Clear
7:32 PM 26.6 °F 19.1 °F 21.2 °F 80% 30.11 in 10.0 mi South 6.9 mph - N/A   Clear
7:52 PM 26.6 °F 19.1 °F 21.2 °F 80% 30.11 in 10.0 mi South 6.9 mph - N/A   Clear
8:12 PM 24.8 °F 19.1 °F 21.2 °F 86% 30.12 in 10.0 mi South 4.6 mph - N/A   Clear
8:33 PM 24.8 °F 16.9 °F 21.2 °F 86% 30.12 in 10.0 mi SSE 6.9 mph - N/A   Clear
8:52 PM 24.8 °F 19.1 °F 21.2 °F 86% 30.11 in 10.0 mi SSE 4.6 mph - N/A   Clear
9:12 PM 21.2 °F 13.6 °F 19.4 °F 93% 30.11 in 10.0 mi SSE 5.8 mph - N/A   Clear
9:33 PM 23.0 °F 14.7 °F 19.4 °F 86% 30.11 in 10.0 mi SSE 6.9 mph - N/A   Clear
9:52 PM 23.0 °F 17.0 °F 19.4 °F 86% 30.11 in 10.0 mi SSE 4.6 mph - N/A   Clear
10:12 PM 23.0 °F - 19.4 °F 86% 30.12 in 10.0 mi Calm Calm - N/A   Clear
10:33 PM 21.2 °F 14.9 °F 19.4 °F 93% 30.11 in 10.0 mi SSE 4.6 mph - N/A   Clear
10:53 PM 21.2 °F 16.4 °F 19.4 °F 93% 30.11 in 10.0 mi SSE 3.5 mph - N/A   Clear
11:12 PM 21.2 °F 16.4 °F 19.4 °F 93% 30.11 in 10.0 mi SSE 3.5 mph - N/A   Clear
11:33 PM 19.4 °F - 17.6 °F 93% 30.11 in 10.0 mi Calm Calm - N/A   Clear
11:52 PM 19.4 °F 14.3 °F 17.6 °F 93% 30.10 in 10.0 mi South 3.5 mph - N/A   Clear